Weather History for Boscobel, WI

Change the Weather History Date:

Thursday, August 1, 2013

  Actual Average (KPDC) Record (KPDC)
Temperature  
Mean Temperature 69 °F -  
Max Temperature 82 °F 84 °F 103 °F (1988)
Min Temperature 57 °F 60 °F 50 °F (1985)
Cooling Degree Days 4    
Growing Degree Days 19 (Base 50)    
Moisture  
Dew Point 58 °F    
Average Humidity 73    
Maximum Humidity 97    
Minimum Humidity 36    
Precipitation  
Precipitation 0.24 in - - ()
Sea Level Pressure  
Sea Level Pressure 29.98 in    
Wind  
Wind Speed 3 mph (WSW)    
Max Wind Speed 10 mph    
Max Gust Speed 18 mph    
Visibility 8 miles    
Events Rain , Thunderstorm    
Averages and records for this station are not official NWS values.
T = Trace of Precipitation, MM = Missing Value Source: NWS Daily Summary

Daily Weather History Graph

Daily Weather History Graph

Search for Another Location

Airport:

Trip Planner

Search our weather history database for the weather conditions in past years. The results will help you decide how hot, cold, wet, or windy it might be!

Date:

Astronomy

Aug. 01, 2013 Rise Set
Actual Time 5:53 AM CDT 8:23 PM CDT
Civil Twilight 5:21 AM CDT 8:56 PM CDT
Nautical Twilight 4:40 AM CDT 9:36 PM CDT
Astronomical Twilight 3:55 AM CDT 10:21 PM CDT
Moon 1:29 AM CDT (8/1) 4:34 PM CDT (8/1)
Length of Visible Light 15h 35m
Length of Day
14h 30m
Waning Crescent, 23% of the Moon is Illuminated
Aug 1
Waning Crescent
Aug 6
New
Aug 14
First Quarter
Aug 20
Full
Aug 28
Last Quarter

Hourly Weather History & Observations

Time (CDT) Temp. Heat Index Dew Point Humidity Pressure Visibility Wind Dir Wind Speed Gust Speed Precip Events Conditions
12:13 AM 62.1 °F - 61.0 °F 96% 30.02 in 1.8 mi Calm Calm - N/A   Clear
12:25 AM 62.1 °F - 61.0 °F 96% 30.01 in 4.0 mi Calm Calm - N/A   Clear
12:53 AM 62.1 °F - 60.1 °F 93% 30.01 in - WSW 3.5 mph - N/A   Unknown
1:53 AM 62.1 °F - 59.0 °F 90% 30.01 in 10.0 mi SW 4.6 mph - N/A   Partly Cloudy
2:53 AM 61.0 °F - 57.0 °F 87% 30.01 in 10.0 mi SSW 5.8 mph - N/A   Clear
3:53 AM 57.0 °F - 55.0 °F 93% 30.00 in 10.0 mi Calm Calm - N/A   Clear
4:53 AM 57.0 °F - 55.0 °F 93% 30.00 in 10.0 mi WSW 3.5 mph - N/A   Clear
5:53 AM 57.0 °F - 55.0 °F 93% 30.01 in 9.0 mi WSW 3.5 mph - N/A   Clear
6:53 AM 59.0 °F - 57.0 °F 93% 30.03 in 10.0 mi Calm Calm - N/A   Unknown
7:53 AM 64.0 °F - 57.9 °F 80% 30.04 in 10.0 mi WSW 3.5 mph - N/A   Clear
8:53 AM 69.1 °F - 57.0 °F 65% 30.04 in 10.0 mi NW 8.1 mph - N/A   Clear
9:53 AM 73.0 °F - 55.0 °F 53% 30.04 in 10.0 mi Variable 3.5 mph - N/A   Clear
10:53 AM 75.9 °F - 54.0 °F 46% 30.04 in 10.0 mi WNW 8.1 mph - N/A   Clear
11:53 AM 79.0 °F - 54.0 °F 42% 30.04 in 10.0 mi WNW 4.6 mph - N/A   Clear
12:53 PM 80.1 °F 80.0 °F 54.0 °F 40% 30.03 in 10.0 mi Variable 6.9 mph 17.3 mph N/A   Clear
1:53 PM 81.0 °F 80.4 °F 53.1 °F 38% 30.01 in 10.0 mi West 10.4 mph - N/A   Clear
2:54 PM 81.0 °F - 52.0 °F 36% 30.00 in 10.0 mi West 8.1 mph - N/A   Unknown
3:53 PM 81.0 °F 80.4 °F 53.1 °F 38% 29.98 in 10.0 mi SW 9.2 mph - N/A   Clear
4:53 PM 81.0 °F 80.4 °F 53.1 °F 38% 29.96 in 10.0 mi Variable 5.8 mph - N/A   Unknown
5:53 PM 79.0 °F - 54.0 °F 42% 29.96 in 10.0 mi SSW 4.6 mph - N/A   Mostly Cloudy
6:53 PM 79.0 °F - 57.9 °F 48% 29.94 in 10.0 mi Calm Calm - N/A   Scattered Clouds
7:53 PM 75.0 °F - 60.1 °F 60% 29.93 in 10.0 mi Calm Calm - N/A   Clear
8:53 PM 69.1 °F - 62.1 °F 78% 29.93 in 10.0 mi Calm Calm - N/A   Unknown
9:53 PM 68.0 °F - 63.0 °F 84% 29.91 in 10.0 mi Variable 3.5 mph - 0.00 in Rain Light Rain
10:04 PM 66.9 °F - 63.0 °F 87% 29.93 in 2.0 mi Calm Calm - 0.08 in Rain , Thunderstorm Heavy Rain
10:06 PM 66.9 °F - 63.0 °F 87% 29.93 in 1.0 mi Calm Calm - 0.18 in Rain , Thunderstorm Heavy Rain
10:13 PM 64.9 °F - 64.0 °F 97% 29.91 in 0.8 mi ESE 6.9 mph - 0.24 in Rain , Thunderstorm Rain
10:16 PM 66.0 °F - 63.0 °F 90% 29.91 in 1.5 mi ESE 6.9 mph - 0.24 in Rain , Thunderstorm Light Thunderstorms and Rain
10:18 PM 66.0 °F - 63.0 °F 90% 29.91 in 4.0 mi ESE 5.8 mph - 0.24 in Rain , Thunderstorm Light Thunderstorms and Rain
10:36 PM 68.0 °F - 63.0 °F 84% 29.93 in 10.0 mi North 6.9 mph 18.4 mph 0.24 in Thunderstorm Overcast
10:53 PM 66.9 °F - 61.0 °F 81% 29.92 in 10.0 mi ESE 4.6 mph - 0.24 in Thunderstorm Overcast
11:06 PM 66.0 °F - 62.1 °F 87% 29.92 in 10.0 mi Calm Calm - N/A   Mostly Cloudy